Hourly Data Report for May 03, 2020

All times are specified in Local Standard Time (LST). Add 1 hour to adjust for Daylight Saving Time where and when it is observed.

OTTAWA INTL A
ONTARIO
Current Station Operator: NAVCAN

45°19'00.000" N
75°40'00.000" W
114.90 m
6106001
71628
YOW

Download Data

Hourly Data (May 2020)
Hourly Data Report for May 3, 2020
TIME Temp Definition
°C
Dew Point Definition
°C
Rel Hum Definition
%
Wind Dir Definition
10's deg

Wind Spd Definition
km/h
Visibility Definition
km
Stn Press Definition
kPa
Hmdx Definition


Wind Chill Definition


Weather Definition


00:00 10.1 7.7 85 15 13 12.9 99.34     Rain
01:00 9.6 8.3 92 9 10 16.1 99.24     Rain
02:00 9.4 8.4 93 8 12 16.1 99.12     LegendNANA
03:00 9.0 8.1 94 10 9 16.1 99.07     LegendNANA
04:00 8.9 8.0 94 6 7 12.9 99.05     Mostly Cloudy
05:00 7.5 7.0 96 22 5 24.1 99.04     LegendNANA
06:00 8.5 8.2 98 22 5 24.1 99.10     LegendNANA
07:00 10.3 9.5 95 23 15 24.1 99.13     Mainly Clear
08:00 12.2 8.6 78 26 23 24.1 99.14     LegendNANA
09:00 14.9 8.2 64 27 21 24.1 99.15     LegendNANA
10:00 16.4 7.5 55 26 18 24.1 99.10     Mainly Clear
11:00 18.6 6.2 44 22 21 24.1 99.02     LegendNANA
12:00 18.7 5.9 43 23 26 24.1 98.95     LegendNANA
13:00 19.4 6.1 41 22 31 24.1 98.84     Mostly Cloudy
14:00 19.6 6.5 42 23 28 24.1 98.76     LegendNANA
15:00 21.2 5.3 35 24 38 24.1 98.70     LegendNANA
16:00 21.8 2.8 28 25 30 24.1 98.67     Mainly Clear
17:00 21.1 -2.0 21 26 35 24.1 98.70     LegendNANA
18:00 18.4 2.3 34 29 37 24.1 98.77     LegendNANA
19:00 15.6 3.3 43 29 30 24.1 98.95     Mainly Clear
20:00 13.0 3.4 52 29 30 24.1 99.10     LegendNANA
21:00 11.2 3.2 58 29 25 24.1 99.17     LegendNANA
22:00 10.2 4.0 65 28 24 24.1 99.18     Mainly Clear
23:00 9.3 4.0 70 29 21 24.1 99.17     LegendNANA

Notes on Data Quality.

Legend

  • E = Estimated
  • M = Missing
  • NA = Not Available*
  • [empty] = Indicates an unobserved value
Date modified: